This demonstration page uses our WeatherBlox Daily Observations layout. Learn more.

Hourly Observations for January 16, 2021

Temp ( °F °C ) Dew Point ( °F °C ) Humidity (%) Winds ( mph kmh ) Pressure ( in mb ) Visibility ( mi km ) Precip ( " mm )
12:15 am 00:15 Cloudy 39 4 39 4 100 100 NW 7 11 29.67 1005 10 16.0934 0 0
12:35 am 00:35 Mostly Cloudy 37 3 37 3 100 100 NNW 7 11 29.67 1005 10 16.0934 0 0
12:55 am 00:55 Mostly Cloudy 37 3 37 3 100 100 NNW 7 11 29.68 1005 10 16.0934 0 0
1:15 am 01:15 Partly Cloudy 37 3 37 3 100 100 N 9 15 29.67 1005 10 16.0934 0 0
1:35 am 01:35 Clear 37 3 36 2 93 93 NNW 7 11 29.66 1004 10 16.0934 0 0
1:55 am 01:55 Clear 36 2 36 2 100 100 N 3 6 29.66 1004 10 16.0934 0 0
2:15 am 02:15 Partly Cloudy 36 2 34 1 93 93 NNW 6 9 29.66 1004 10 16.0934 0 0
2:35 am 02:35 Clear 34 1 34 1 100 100 NW 6 9 29.65 1004 10 16.0934 0 0
2:55 am 02:55 Clear 32 0 32 0 100 100 NW 7 11 29.65 1004 10 16.0934 0 0
3:15 am 03:15 Clear 32 0 32 0 100 100 NW 7 11 29.64 1004 10 16.0934 0 0
3:35 am 03:35 Clear 32 0 32 0 100 100 WNW 5 7 29.64 1004 10 16.0934 0 0
3:55 am 03:55 Clear 32 0 32 0 100 100 NNW 3 6 29.64 1004 10 16.0934 0 0
4:15 am 04:15 Clear 30 -1 30 -1 100 100 WNW 6 9 29.63 1003 10 16.0934 0 0
4:35 am 04:35 Clear 32 0 32 0 100 100 NW 7 11 29.61 1003 10 16.0934 0 0
4:55 am 04:55 Clear 32 0 32 0 100 100 NW 6 9 29.61 1003 10 16.0934 0 0
5:15 am 05:15 Clear 30 -1 30 -1 100 100 NW 7 11 29.61 1003 10 16.0934 0 0
5:35 am 05:35 Clear 30 -1 30 -1 100 100 NW 10 17 29.61 1003 10 16.0934 0 0
5:55 am 05:55 Clear 32 0 32 0 100 100 NW 9 15 29.62 1003 10 16.0934 0 0
6:15 am 06:15 Clear 32 0 32 0 100 100 NW 9 15 29.62 1003 10 16.0934 0 0
6:35 am 06:35 Mostly Cloudy 32 0 32 0 100 100 WNW 7 11 29.62 1003 10 16.0934 0 0
9:15 am 09:15 Cloudy 34 1 32 0 93 93 NW 7 11 29.62 1003 10 16.0934 0 0
9:35 am 09:35 Cloudy 34 1 32 0 93 93 WNW 7 11 29.63 1003 10 16.0934 0 0
9:55 am 09:55 Cloudy 36 2 32 0 87 87 WNW 9 15 29.63 1003 10 16.0934 0 0
10:15 am 10:15 Cloudy 36 2 32 0 87 87 WNW 12 19 29.62 1003 10 16.0934 0 0
10:35 am 10:35 Cloudy 36 2 32 0 87 87 NW 8 13 29.61 1003 10 16.0934 0 0
10:55 am 10:55 Cloudy 37 3 32 0 81 81 NW 10 17 29.61 1003 10 16.0934 0 0
11:15 am 11:15 Partly Cloudy 37 3 32 0 81 81 WNW 13 20 29.6 1002 10 16.0934 0 0
11:35 am 11:35 Sunny 41 5 32 0 70 70 NW 9 15 29.58 1002 10 16.0934 0 0
11:55 am 11:55 Sunny 41 5 30 -1 66 66 NW 14 22 29.56 1001 10 16.0934 0 0
12:15 pm 12:15 Sunny 41 5 30 -1 66 66 NW 10 17 29.55 1001 10 16.0934 0 0
12:35 pm 12:35 Sunny 43 6 32 0 66 66 WNW 12 19 29.53 1000 10 16.0934 0 0
12:55 pm 12:55 Sunny 41 5 30 -1 66 66 NNW 7 11 29.53 1000 10 16.0934 0 0
1:15 pm 13:15 Mostly Cloudy 43 6 30 -1 61 61 NW 8 13 29.52 1000 10 16.0934 0 0
1:35 pm 13:35 Mostly Cloudy 43 6 32 0 66 66 NW 10 17 29.51 999 10 16.0934 0 0
1:55 pm 13:55 Cloudy 43 6 32 0 66 66 NW 7 11 29.51 999 10 16.0934 0 0
2:15 pm 14:15 Cloudy 43 6 28 -2 57 57 NW 10 17 29.51 999 10 16.0934 0 0
2:35 pm 14:35 Cloudy 45 7 28 -2 53 53 NW 10 17 29.51 999 10 16.0934 0 0
2:55 pm 14:55 Cloudy 43 6 28 -2 57 57 WNW 10 17 29.51 999 10 16.0934 0 0
3:15 pm 15:15 Cloudy 43 6 28 -2 57 57 WNW 14 22 29.52 1000 10 16.0934 0 0
3:35 pm 15:35 Cloudy 43 6 28 -2 57 57 WNW 14 22 29.53 1000 10 16.0934 0 0
3:55 pm 15:55 Cloudy 43 6 30 -1 61 61 WNW 14 22 29.54 1000 10 16.0934 0 0
4:15 pm 16:15 Cloudy 41 5 30 -1 66 66 WNW 12 19 29.55 1001 10 16.0934 0 0
4:35 pm 16:35 Cloudy 41 5 28 -2 61 61 WNW 10 17 29.55 1001 10 16.0934 0 0
4:55 pm 16:55 Cloudy 41 5 28 -2 61 61 WNW 10 17 29.56 1001 10 16.0934 0 0
5:15 pm 17:15 Cloudy with Light Rain 41 5 30 -1 66 66 WNW 16 26 29.58 1002 10 16.0934 0 0
5:35 pm 17:35 Cloudy 39 4 32 0 75 75 NW 10 17 29.6 1002 10 16.0934 0 0
5:55 pm 17:55 Partly Cloudy 37 3 30 -1 75 75 WNW 10 17 29.61 1003 10 16.0934 0 0
6:15 pm 18:15 Clear 37 3 30 -1 75 75 NW 13 20 29.62 1003 10 16.0934 0 0
6:35 pm 18:35 Clear 37 3 30 -1 75 75 WNW 10 17 29.62 1003 10 16.0934 0 0
6:55 pm 18:55 Clear 37 3 28 -2 70 70 WNW 13 20 29.63 1003 10 16.0934 0 0
7:15 pm 19:15 Clear 37 3 30 -1 75 75 WNW 13 20 29.64 1004 10 16.0934 0 0
7:35 pm 19:35 Clear 37 3 28 -2 70 70 WNW 10 17 29.64 1004 10 16.0934 0 0
7:55 pm 19:55 Partly Cloudy 36 2 27 -3 70 70 W 12 19 29.65 1004 10 16.0934 0 0
8:15 pm 20:15 Partly Cloudy 36 2 27 -3 70 70 WNW 16 26 29.65 1004 10 16.0934 0 0
8:35 pm 20:35 Clear 36 2 27 -3 70 70 WNW 10 17 29.66 1004 10 16.0934 0 0
8:55 pm 20:55 Clear 36 2 25 -4 65 65 WNW 10 17 29.66 1004 10 16.0934 0 0
9:15 pm 21:15 Clear 34 1 25 -4 70 70 W 8 13 29.67 1005 10 16.0934 0 0
9:35 pm 21:35 Clear 34 1 25 -4 70 70 WNW 12 19 29.67 1005 10 16.0934 0 0
9:55 pm 21:55 Clear 34 1 25 -4 70 70 WNW 18 30 29.68 1005 10 16.0934 0 0
10:15 pm 22:15 Clear 34 1 25 -4 70 70 WNW 13 20 29.68 1005 10 16.0934 0 0
10:35 pm 22:35 Clear 34 1 25 -4 70 70 W 9 15 29.68 1005 10 16.0934 0 0
10:55 pm 22:55 Clear 34 1 25 -4 70 70 WNW 8 13 29.68 1005 10 16.0934 0 0
11:15 pm 23:15 Clear 34 1 25 -4 70 70 WNW 9 15 29.69 1005 10 16.0934 0 0
11:35 pm 23:35 Clear 34 1 25 -4 70 70 WNW 13 20 29.69 1005 10 16.0934 0 0
11:55 pm 23:55 Clear 34 1 25 -4 70 70 W 9 15 29.69 1005 10 16.0934 0 0

Powered by AerisWeather